This is the latest recevied weather packets stored in our database for station/object KC9MWQ-13. If no packets are shown the sender has not sent any weather packets the latest 1 day(s).
| Time | Temp. | Humidity | Pressure | Rain* | Wind** | Luminosity | Snow |
|---|---|---|---|---|---|---|---|
| 1778023292 | 8.33° C | 99% | 1009.5 hPa | 0 mm | 0 m/s | 17 W/m² | - |
| 1778022989 | 8.33° C | 99% | 1009.8 hPa | 1.27 mm | 0 m/s | 18 W/m² | - |
| 1778022687 | 8.33° C | 99% | 1009.7 hPa | 1.27 mm | 0 m/s | 24 W/m² | - |
| 1778022385 | 8.33° C | 99% | 1009.8 hPa | 0 mm | 0 m/s | 20 W/m² | - |
| 1778022081 | 8.33° C | 99% | 1010 hPa | 0 mm | 0 m/s | 15 W/m² | - |
| 1778021778 | 8.33° C | 99% | 1010 hPa | 0 mm | 0 m/s | 19 W/m² | - |
| 1778021474 | 8.33° C | 99% | 1009.9 hPa | 1.78 mm | 0 m/s | 32 W/m² | - |
| 1778021171 | 8.33° C | 99% | 1009.8 hPa | 1.78 mm | 0 m/s | 36 W/m² | - |
| 1778020868 | 7.78° C | 99% | 1010 hPa | 0 mm | 0 m/s | 22 W/m² | - |
| 1778020565 | 7.78° C | 99% | 1010.1 hPa | 0 mm | 0 m/s | 27 W/m² | - |
| 1778020261 | 8.33° C | 99% | 1009.9 hPa | 0 mm | 0 m/s | 31 W/m² | - |
| 1778019958 | 8.33° C | 99% | 1009.8 hPa | 1.27 mm | 0 m/s | 44 W/m² | - |
| 1778019654 | 7.78° C | 99% | 1009.7 hPa | 3.05 mm | 0.45 m/s, 291° | 62 W/m² | - |
| 1778019351 | 8.33° C | 99% | 1009.8 hPa | 3.56 mm | 1.34 m/s, 327° | 44 W/m² | - |
| 1778019047 | 8.33° C | 99% | 1009.6 hPa | 3.05 mm | 0.45 m/s, 292° | 56 W/m² | - |
| 1778018745 | 8.33° C | 99% | 1010 hPa | 1.27 mm | 0 m/s | 50 W/m² | - |
| 1778018443 | 8.33° C | 99% | 1010.1 hPa | 1.78 mm | 0 m/s | 31 W/m² | - |
| 1778018141 | 8.33° C | 99% | 1009.9 hPa | 1.78 mm | 0 m/s | 38 W/m² | - |
| 1778017838 | 8.33° C | 99% | 1010.3 hPa | 1.78 mm | 0 m/s | 35 W/m² | - |
| 1778017536 | 8.33° C | 99% | 1010.1 hPa | 1.27 mm | 0 m/s | 75 W/m² | - |
| 1778017233 | 8.33° C | 99% | 1009.9 hPa | 1.27 mm | 0 m/s | 53 W/m² | - |
| 1778016930 | 8.33° C | 99% | 1010.1 hPa | 0 mm | 0 m/s | 47 W/m² | - |
| 1778016626 | 8.33° C | 99% | 1009.9 hPa | 0 mm | 0 m/s | 42 W/m² | - |
| 1778016323 | 8.33° C | 99% | 1009.9 hPa | 0 mm | 0.89 m/s, 306° | 54 W/m² | - |
| 1778016020 | 8.33° C | 99% | 1010.1 hPa | 1.78 mm | 0.45 m/s, 303° | 47 W/m² | - |
* Rain latest hour (hover to see other rain measurements)
** Current wind speed in m/s (hover to see current wind gust speed)